PDA5624 UKBB-EFHK

Flight info

Callsign PDA5624
Flight time 2h 0m
Altitude 34000
Route KAFEL T731 OKROT DCT TOLPA/N0454F340 DCT LUGUG DCT ETUBO DCT BOKSU/N0451F330 DCT GUNTA DCT SOKVA DCT ANAMA DCT KEMET DCT KEXLE DCT BEKNA DCT INTOR
Aircraft A321/M-SDE3FGHIJ4RWY/LB1

Departure

Time 2026-05-07 17:46
Airport Boryspil International Airport (UKBB)

Arrival

Time 2026-05-07 19:47
Airport Helsinki Vantaa Airport (EFHK)
Time Latitude Longitude Altitude Speed Heading
2026-05-07 17:21 50.33563 30.89867 410 ft 0 kts
2026-05-07 17:39 50.33572 30.89868 415 ft 5 kts
2026-05-07 17:40 50.33601 30.89925 415 ft 11 kts 80°
2026-05-07 17:40 50.33600 30.90081 415 ft 17 kts 92°
2026-05-07 17:40 50.33668 30.90141 411 ft 13 kts
2026-05-07 17:40 50.33787 30.90153 409 ft 21 kts
2026-05-07 17:41 50.33948 30.90166 410 ft 23 kts
2026-05-07 17:41 50.34106 30.90179 410 ft 22 kts
2026-05-07 17:41 50.34253 30.90191 415 ft 20 kts
2026-05-07 17:41 50.34389 30.90201 414 ft 19 kts
2026-05-07 17:42 50.34513 30.90209 411 ft 17 kts
2026-05-07 17:42 50.34654 30.90220 410 ft 24 kts
2026-05-07 17:42 50.34844 30.90234 411 ft 28 kts
2026-05-07 17:42 50.35034 30.90249 415 ft 27 kts
2026-05-07 17:43 50.35215 30.90261 415 ft 25 kts
2026-05-07 17:43 50.35384 30.90273 415 ft 24 kts
2026-05-07 17:43 50.35543 30.90285 410 ft 22 kts
2026-05-07 17:43 50.35692 30.90296 415 ft 21 kts
2026-05-07 17:44 50.35828 30.90306 413 ft 19 kts
2026-05-07 17:44 50.35954 30.90315 413 ft 17 kts
2026-05-07 17:44 50.36057 30.90360 415 ft 15 kts 40°
2026-05-07 17:44 50.36085 30.90491 417 ft 12 kts 97°
2026-05-07 17:45 50.36052 30.90581 416 ft 8 kts 136°
2026-05-07 17:45 50.36009 30.90621 419 ft 6 kts 158°
2026-05-07 17:45 50.35972 30.90636 411 ft 5 kts 170°
2026-05-07 17:45 50.35904 30.90635 411 ft 16 kts 182°
2026-05-07 17:46 50.35571 30.90614 414 ft 81 kts 184°
2026-05-07 17:46 50.34821 30.90557 423 ft 135 kts 183°
2026-05-07 17:46 50.33734 30.90477 426 ft 176 kts 182°
2026-05-07 17:46 50.32500 30.90360 1037 ft 170 kts 185°
2026-05-07 17:47 50.31322 30.90190 1663 ft 173 kts 187°
2026-05-07 17:47 50.30062 30.89974 1812 ft 191 kts 188°
2026-05-07 17:47 50.28668 30.89714 1987 ft 208 kts 187°
2026-05-07 17:47 50.27154 30.89473 2077 ft 235 kts 187°
2026-05-07 17:48 50.25484 30.89247 2584 ft 245 kts 185°
2026-05-07 17:48 50.23747 30.89167 3270 ft 247 kts 182°
2026-05-07 17:48 50.22072 30.88776 3917 ft 249 kts 202°
2026-05-07 17:48 50.20637 30.87267 4557 ft 252 kts 227°
2026-05-07 17:49 50.19772 30.84882 5221 ft 258 kts 252°
2026-05-07 17:49 50.19703 30.82077 5825 ft 267 kts 280°
2026-05-07 17:49 50.20180 30.79237 6422 ft 272 kts 283°
2026-05-07 17:49 50.20666 30.76353 7016 ft 275 kts 282°
2026-05-07 17:50 50.21148 30.73459 7638 ft 277 kts 282°
2026-05-07 17:50 50.21627 30.70539 8266 ft 279 kts 283°
2026-05-07 17:50 50.22103 30.67612 8873 ft 281 kts 282°
2026-05-07 17:50 50.22587 30.64619 9445 ft 284 kts 284°
2026-05-07 17:51 50.23070 30.61622 10056 ft 285 kts 282°
2026-05-07 17:51 50.23566 30.58537 10263 ft 302 kts 283°
2026-05-07 17:51 50.24092 30.55259 10388 ft 320 kts 282°
2026-05-07 17:51 50.24648 30.51793 10514 ft 337 kts 283°
2026-05-07 17:52 50.25233 30.48160 10635 ft 353 kts 283°
2026-05-07 17:52 50.25841 30.44355 10758 ft 368 kts 282°
2026-05-07 17:52 50.26469 30.40406 10939 ft 379 kts 282°
2026-05-07 17:52 50.27107 30.36385 11320 ft 383 kts 283°
2026-05-07 17:53 50.27750 30.32341 11768 ft 386 kts 282°
2026-05-07 17:53 50.28403 30.28254 12217 ft 388 kts 282°
2026-05-07 17:53 50.29055 30.24141 12635 ft 391 kts 282°
2026-05-07 17:53 50.29696 30.20066 13040 ft 393 kts 282°
2026-05-07 17:54 50.30354 30.15856 13454 ft 396 kts 281°
2026-05-07 17:54 50.31014 30.11644 13833 ft 398 kts 281°
2026-05-07 17:54 50.31673 30.07426 14158 ft 400 kts 281°
2026-05-07 17:54 50.32323 30.03251 14485 ft 402 kts 281°
2026-05-07 17:55 50.32988 29.98977 14822 ft 404 kts 281°
2026-05-07 17:55 50.33653 29.94699 15154 ft 405 kts 281°
2026-05-07 17:55 50.34324 29.90365 15503 ft 407 kts 281°
2026-05-07 17:55 50.34988 29.86051 15830 ft 408 kts 281°
2026-05-07 17:56 50.35655 29.81718 16158 ft 410 kts 281°
2026-05-07 17:56 50.36324 29.77368 16481 ft 412 kts 281°
2026-05-07 17:56 50.36992 29.73008 16818 ft 414 kts 281°
2026-05-07 17:56 50.37664 29.68617 17150 ft 416 kts 281°
2026-05-07 17:57 50.38333 29.64222 17484 ft 418 kts 281°
2026-05-07 17:57 50.38772 29.61329 17715 ft 419 kts 281°
2026-05-07 17:57 50.39676 29.55349 18175 ft 421 kts 281°
2026-05-07 17:57 50.40356 29.50831 18480 ft 423 kts 281°
2026-05-07 17:58 50.41030 29.46344 18785 ft 425 kts 281°
2026-05-07 17:58 50.41715 29.41789 19072 ft 428 kts 281°
2026-05-07 17:58 50.42398 29.37238 19361 ft 430 kts 281°
2026-05-07 17:58 50.43081 29.32663 19657 ft 432 kts 281°
2026-05-07 17:59 50.43764 29.28067 19945 ft 434 kts 281°
2026-05-07 17:59 50.44450 29.23443 20239 ft 436 kts 281°
2026-05-07 17:59 50.45138 29.18791 20528 ft 438 kts 281°
2026-05-07 17:59 50.45825 29.14129 20801 ft 439 kts 281°
2026-05-07 18:00 50.46511 29.09453 21078 ft 441 kts 281°
2026-05-07 18:00 50.47199 29.04747 21362 ft 443 kts 281°
2026-05-07 18:00 50.47888 29.00033 21638 ft 445 kts 281°
2026-05-07 18:00 50.48579 28.95299 21917 ft 446 kts 281°
2026-05-07 18:01 50.49271 28.90549 22189 ft 448 kts 281°
2026-05-07 18:01 50.49960 28.85815 22451 ft 450 kts 281°
2026-05-07 18:01 50.50654 28.81017 22723 ft 452 kts 281°
2026-05-07 18:01 50.51357 28.76129 22996 ft 454 kts 281°
2026-05-07 18:02 50.52733 28.66482 23507 ft 457 kts 281°
2026-05-07 18:02 50.53417 28.61678 23725 ft 459 kts 281°
2026-05-07 18:02 50.54125 28.56694 23941 ft 460 kts 281°
2026-05-07 18:03 50.54820 28.51792 24148 ft 461 kts 281°
2026-05-07 18:03 50.55509 28.46904 24348 ft 462 kts 281°
2026-05-07 18:03 50.56211 28.41924 24540 ft 463 kts 281°
2026-05-07 18:03 50.56680 28.38582 24676 ft 464 kts 281°
2026-05-07 18:04 50.57379 28.33600 24833 ft 465 kts 281°
2026-05-07 18:04 50.58070 28.28652 25018 ft 465 kts 281°
2026-05-07 18:04 50.58763 28.23678 25262 ft 464 kts 281°
2026-05-07 18:04 50.59450 28.18720 25501 ft 463 kts 281°
2026-05-07 18:05 50.60132 28.13768 25744 ft 462 kts 281°
2026-05-07 18:05 50.60808 28.08823 25998 ft 461 kts 281°
2026-05-07 18:05 50.61479 28.03899 26242 ft 460 kts 281°
2026-05-07 18:05 50.62151 27.98983 26485 ft 459 kts 281°
2026-05-07 18:06 50.62806 27.94187 26716 ft 458 kts 281°
2026-05-07 18:06 50.63486 27.89188 26955 ft 457 kts 281°
2026-05-07 18:06 50.64143 27.84327 27200 ft 457 kts 281°
2026-05-07 18:06 50.64799 27.79460 27441 ft 456 kts 280°
2026-05-07 18:07 50.65458 27.74558 27677 ft 455 kts 280°
2026-05-07 18:07 50.66110 27.69686 27908 ft 454 kts 280°
2026-05-07 18:07 50.66757 27.64829 28147 ft 454 kts 280°
2026-05-07 18:07 50.67400 27.59961 28407 ft 452 kts 280°
2026-05-07 18:08 50.68036 27.55159 28661 ft 451 kts 280°
2026-05-07 18:08 50.68682 27.50290 28904 ft 450 kts 280°
2026-05-07 18:08 50.69307 27.45570 29130 ft 449 kts 280°
2026-05-07 18:08 50.69955 27.40637 29362 ft 449 kts 279°
2026-05-07 18:09 50.70585 27.35806 29559 ft 449 kts 280°
2026-05-07 18:09 50.71245 27.31040 29707 ft 450 kts 282°
2026-05-07 18:09 50.72038 27.26210 29887 ft 450 kts 284°
2026-05-07 18:09 50.72884 27.21584 30067 ft 450 kts 285°
2026-05-07 18:10 50.73806 27.16749 30270 ft 450 kts 284°
2026-05-07 18:10 50.74702 27.12017 30461 ft 449 kts 284°
2026-05-07 18:10 50.75573 27.07283 30655 ft 447 kts 283°
2026-05-07 18:10 50.76417 27.02563 30843 ft 446 kts 283°
2026-05-07 18:11 50.77238 26.97846 31036 ft 445 kts 283°
2026-05-07 18:11 50.78048 26.93129 31229 ft 445 kts 283°
2026-05-07 18:11 50.78857 26.88413 31417 ft 444 kts 283°
2026-05-07 18:11 50.79665 26.83710 31606 ft 443 kts 283°
2026-05-07 18:12 50.80465 26.79036 31778 ft 442 kts 283°
2026-05-07 18:12 50.81274 26.74327 31988 ft 442 kts 283°
2026-05-07 18:12 50.82072 26.69660 32177 ft 441 kts 282°
2026-05-07 18:12 50.82870 26.64974 32359 ft 440 kts 282°
2026-05-07 18:13 50.83666 26.60295 32555 ft 440 kts 282°
2026-05-07 18:13 50.84460 26.55629 32734 ft 439 kts 282°
2026-05-07 18:13 50.85247 26.50994 32904 ft 438 kts 282°
2026-05-07 18:13 50.86026 26.46408 33097 ft 438 kts 282°
2026-05-07 18:14 50.86829 26.41654 33285 ft 437 kts 282°
2026-05-07 18:14 50.87586 26.37150 33457 ft 436 kts 282°
2026-05-07 18:14 50.88376 26.32427 33640 ft 436 kts 282°
2026-05-07 18:14 50.89148 26.27806 33846 ft 435 kts 282°
2026-05-07 18:15 50.89909 26.23236 33955 ft 435 kts 282°
2026-05-07 18:15 50.91459 26.13887 33974 ft 435 kts 282°
2026-05-07 18:16 50.92957 26.04815 33968 ft 435 kts 282°
2026-05-07 18:16 50.94511 25.95368 33967 ft 435 kts 282°
2026-05-07 18:17 50.96033 25.86103 33970 ft 435 kts 281°
2026-05-07 18:17 50.97546 25.76784 33978 ft 435 kts 281°
2026-05-07 18:18 50.99048 25.67462 33967 ft 436 kts 281°
2026-05-07 18:18 51.00547 25.58147 33962 ft 436 kts 281°
2026-05-07 18:19 51.02036 25.48827 33954 ft 436 kts 281°
2026-05-07 18:19 51.03517 25.39548 33952 ft 436 kts 281°
2026-05-07 18:20 51.04998 25.30183 33973 ft 437 kts 280°
2026-05-07 18:20 51.06472 25.20781 33972 ft 438 kts 280°
2026-05-07 18:21 51.07933 25.11411 33967 ft 437 kts 280°
2026-05-07 18:21 51.09399 25.01975 33965 ft 437 kts 280°
2026-05-07 18:22 51.10851 24.92598 33991 ft 437 kts 280°
2026-05-07 18:22 51.12295 24.83204 33986 ft 436 kts 279°
2026-05-07 18:23 51.13717 24.73831 33976 ft 436 kts 279°
2026-05-07 18:23 51.15116 24.64599 33974 ft 436 kts 279°
2026-05-07 18:24 51.16518 24.55355 33970 ft 435 kts 279°
2026-05-07 18:24 51.17977 24.45652 33991 ft 435 kts 279°
2026-05-07 18:25 51.19376 24.36282 33984 ft 435 kts 279°
2026-05-07 18:25 51.20763 24.26908 33979 ft 434 kts 279°
2026-05-07 18:26 51.22139 24.17520 33979 ft 434 kts 278°
2026-05-07 18:26 51.23496 24.08270 33975 ft 434 kts 279°
2026-05-07 18:27 51.24859 23.98970 33969 ft 434 kts 278°
2026-05-07 18:27 51.26218 23.89535 33971 ft 434 kts 278°
2026-05-07 18:28 51.27581 23.80053 33968 ft 434 kts 278°
2026-05-07 18:28 51.28920 23.70690 33972 ft 434 kts 278°
2026-05-07 18:29 51.30240 23.61365 33966 ft 433 kts 278°
2026-05-07 18:29 51.31588 23.51801 33984 ft 435 kts 277°
2026-05-07 18:30 51.32919 23.42298 33960 ft 442 kts 277°
2026-05-07 18:30 51.34248 23.32755 33965 ft 446 kts 277°
2026-05-07 18:31 51.35598 23.22997 33968 ft 450 kts 277°
2026-05-07 18:31 51.37069 23.13249 33962 ft 456 kts 286°
2026-05-07 18:31 51.38549 23.08704 33999 ft 467 kts 300°
2026-05-07 18:32 51.40736 23.04807 33956 ft 477 kts 315°
2026-05-07 18:32 51.43542 23.01867 33967 ft 487 kts 330°
2026-05-07 18:32 51.46774 23.00232 33962 ft 495 kts 348°
2026-05-07 18:33 51.53704 22.99764 33975 ft 500 kts 355°
2026-05-07 18:33 51.60694 22.99540 33974 ft 500 kts 355°
2026-05-07 18:34 51.67634 22.99287 33974 ft 500 kts 355°
2026-05-07 18:34 51.74569 22.99022 33978 ft 500 kts 355°
2026-05-07 18:35 51.81560 22.98759 33975 ft 500 kts 355°
2026-05-07 18:35 51.88514 22.98493 34006 ft 500 kts 355°
2026-05-07 18:36 51.95467 22.98221 33994 ft 500 kts 355°
2026-05-07 18:36 52.02429 22.97963 33992 ft 499 kts 355°
2026-05-07 18:37 52.09364 22.97701 33987 ft 499 kts 355°
2026-05-07 18:37 52.16306 22.97435 33985 ft 499 kts 355°
2026-05-07 18:38 52.23238 22.97176 33991 ft 499 kts 355°
2026-05-07 18:38 52.30159 22.96916 33992 ft 498 kts 355°
2026-05-07 18:39 52.37111 22.96638 33992 ft 498 kts 355°
2026-05-07 18:39 52.44014 22.96364 33993 ft 498 kts 355°
2026-05-07 18:40 52.50960 22.96237 34004 ft 499 kts 358°
2026-05-07 18:40 52.57920 22.96620 34002 ft 500 kts 359°
2026-05-07 18:41 52.64833 22.97142 33997 ft 500 kts 359°
2026-05-07 18:41 52.71833 22.97563 33995 ft 500 kts 359°
2026-05-07 18:42 52.78770 22.97889 33998 ft 500 kts 358°
2026-05-07 18:42 52.85698 22.98214 34005 ft 500 kts 359°
2026-05-07 18:43 52.92690 22.98570 34005 ft 500 kts 359°
2026-05-07 18:43 52.99647 22.98934 34003 ft 500 kts 359°
2026-05-07 18:44 53.06607 22.99296 34010 ft 500 kts 358°
2026-05-07 18:44 53.13540 22.99656 34031 ft 500 kts 359°
2026-05-07 18:45 53.20515 23.00025 34020 ft 501 kts 359°
2026-05-07 18:45 53.27344 23.00384 33991 ft 501 kts 359°
2026-05-07 18:46 53.34423 23.00753 33655 ft 503 kts 359°
2026-05-07 18:46 53.37924 23.00932 33384 ft 503 kts 359°
2026-05-07 18:46 53.41426 23.01114 33115 ft 504 kts 359°
2026-05-07 18:46 53.44860 23.01295 32954 ft 504 kts 359°
2026-05-07 18:47 53.48412 23.01479 33015 ft 505 kts 359°
2026-05-07 18:47 53.55450 23.01844 33016 ft 505 kts 358°
2026-05-07 18:48 53.62487 23.02216 33004 ft 506 kts 358°
2026-05-07 18:48 53.69530 23.02601 33019 ft 506 kts 358°
2026-05-07 18:49 53.76550 23.02980 33010 ft 506 kts 358°
2026-05-07 18:49 53.83596 23.03345 33020 ft 507 kts 359°
2026-05-07 18:50 53.90634 23.03711 33023 ft 507 kts 359°
2026-05-07 18:50 53.96474 23.04036 33024 ft 507 kts 359°
2026-05-07 18:51 54.03537 23.04433 33026 ft 507 kts 359°
2026-05-07 18:51 54.10573 23.04815 33024 ft 507 kts 358°
2026-05-07 18:52 54.17649 23.05196 33032 ft 507 kts 358°
2026-05-07 18:52 54.24708 23.05576 33035 ft 507 kts 358°
2026-05-07 18:53 54.31767 23.06233 33033 ft 510 kts
2026-05-07 18:53 54.38748 23.08465 33036 ft 511 kts
2026-05-07 18:54 54.45736 23.10728 33035 ft 511 kts
2026-05-07 18:54 54.52734 23.12995 33064 ft 511 kts
2026-05-07 18:55 54.59728 23.15260 33044 ft 511 kts
2026-05-07 18:55 54.66711 23.17521 33041 ft 511 kts
2026-05-07 18:56 54.73692 23.19789 33038 ft 511 kts
2026-05-07 18:56 54.80677 23.22090 33038 ft 511 kts
2026-05-07 18:57 54.87667 23.24398 33052 ft 511 kts
2026-05-07 18:57 54.94637 23.26680 33053 ft 511 kts
2026-05-07 18:58 55.01615 23.28988 33052 ft 511 kts
2026-05-07 18:58 55.08602 23.31312 33057 ft 511 kts
2026-05-07 18:59 55.15536 23.33636 33071 ft 511 kts
2026-05-07 18:59 55.22516 23.35964 33066 ft 511 kts
2026-05-07 19:00 55.29509 23.38310 33065 ft 511 kts
2026-05-07 19:00 55.36537 23.40665 33071 ft 511 kts
2026-05-07 19:01 55.43480 23.43016 33081 ft 512 kts
2026-05-07 19:01 55.50521 23.45415 33078 ft 512 kts
2026-05-07 19:02 55.57465 23.47771 33077 ft 512 kts
2026-05-07 19:02 55.64475 23.50171 33075 ft 513 kts
2026-05-07 19:03 55.71476 23.52570 33082 ft 514 kts
2026-05-07 19:03 55.78513 23.54997 33078 ft 514 kts
2026-05-07 19:04 55.85529 23.57438 33073 ft 515 kts
2026-05-07 19:04 55.92569 23.59878 33093 ft 515 kts
2026-05-07 19:05 55.99594 23.62326 33086 ft 515 kts
2026-05-07 19:05 56.06631 23.64779 33085 ft 514 kts
2026-05-07 19:06 56.13638 23.67237 33086 ft 514 kts
2026-05-07 19:06 56.24139 23.70936 33103 ft 514 kts
2026-05-07 19:07 56.30992 23.73372 33097 ft 513 kts
2026-05-07 19:07 56.38183 23.75933 33094 ft 513 kts
2026-05-07 19:08 56.45188 23.78489 33089 ft 513 kts
2026-05-07 19:08 56.52173 23.81058 33087 ft 513 kts
2026-05-07 19:09 56.59146 23.83536 33117 ft 512 kts
2026-05-07 19:09 56.66147 23.85949 33118 ft 510 kts
2026-05-07 19:10 56.73118 23.88354 33137 ft 509 kts
2026-05-07 19:10 56.80045 23.90764 33093 ft 506 kts
2026-05-07 19:11 56.86931 23.93172 33093 ft 506 kts
2026-05-07 19:11 56.93880 23.95606 33093 ft 506 kts
2026-05-07 19:12 57.00752 23.98017 33111 ft 506 kts
2026-05-07 19:12 57.07700 24.00469 33105 ft 506 kts
2026-05-07 19:13 57.14610 24.02909 33100 ft 505 kts
2026-05-07 19:13 57.21471 24.05350 33097 ft 505 kts
2026-05-07 19:14 57.28371 24.07818 33135 ft 505 kts
2026-05-07 19:14 57.35246 24.10289 33095 ft 503 kts
2026-05-07 19:15 57.42109 24.12753 33098 ft 503 kts
2026-05-07 19:15 57.48967 24.15229 33098 ft 503 kts
2026-05-07 19:16 57.55844 24.17730 33140 ft 503 kts
2026-05-07 19:16 57.62684 24.20215 33110 ft 500 kts
2026-05-07 19:17 57.69519 24.22641 33106 ft 500 kts
2026-05-07 19:17 57.76345 24.25079 33102 ft 500 kts
2026-05-07 19:18 57.83160 24.27869 33119 ft 502 kts
2026-05-07 19:18 57.89941 24.30902 33136 ft 502 kts
2026-05-07 19:19 57.96739 24.33924 33117 ft 501 kts
2026-05-07 19:19 58.03523 24.36957 33106 ft 501 kts
2026-05-07 19:20 58.10298 24.40015 33105 ft 501 kts
2026-05-07 19:20 58.17085 24.42255 33080 ft 492 kts
2026-05-07 19:21 58.23613 24.44115 33082 ft 493 kts
2026-05-07 19:21 58.30395 24.46129 33092 ft 493 kts
2026-05-07 19:22 58.37169 24.48148 33085 ft 493 kts
2026-05-07 19:22 58.43946 24.50161 33121 ft 493 kts
2026-05-07 19:23 58.50720 24.52166 33111 ft 492 kts
2026-05-07 19:23 58.57349 24.54159 33087 ft 479 kts
2026-05-07 19:24 58.63915 24.56162 33088 ft 477 kts
2026-05-07 19:24 58.70390 24.58037 33102 ft 473 kts
2026-05-07 19:25 58.76960 24.59985 33095 ft 473 kts
2026-05-07 19:25 58.83417 24.61996 33104 ft 474 kts
2026-05-07 19:26 58.89938 24.64157 33108 ft 474 kts
2026-05-07 19:26 58.96398 24.66379 33111 ft 474 kts
2026-05-07 19:27 59.02914 24.68824 33134 ft 475 kts
2026-05-07 19:27 59.09408 24.71300 33127 ft 476 kts
2026-05-07 19:28 59.15904 24.73786 33119 ft 476 kts
2026-05-07 19:28 59.22316 24.76254 32567 ft 473 kts
2026-05-07 19:29 59.25573 24.77520 31700 ft 474 kts
2026-05-07 19:29 59.28847 24.78804 30863 ft 475 kts
2026-05-07 19:29 59.32074 24.80081 30017 ft 476 kts
2026-05-07 19:29 59.35302 24.81365 29028 ft 476 kts
2026-05-07 19:30 59.38568 24.82663 28160 ft 477 kts
2026-05-07 19:30 59.41840 24.83965 27705 ft 479 kts
2026-05-07 19:30 59.45090 24.85612 27269 ft 485 kts 10°
2026-05-07 19:30 59.48344 24.87452 26839 ft 486 kts 10°
2026-05-07 19:31 59.51571 24.89286 26440 ft 486 kts
2026-05-07 19:31 59.54600 24.90461 26112 ft 479 kts
2026-05-07 19:31 59.57539 24.91190 25753 ft 479 kts
2026-05-07 19:31 59.60587 24.91926 25385 ft 480 kts
2026-05-07 19:32 59.63689 24.92220 25014 ft 469 kts 349°
2026-05-07 19:32 59.66473 24.91669 24712 ft 467 kts 346°
2026-05-07 19:32 59.69550 24.90972 24349 ft 465 kts 346°
2026-05-07 19:32 59.72769 24.90355 23969 ft 467 kts 349°
2026-05-07 19:33 59.75997 24.90033 23577 ft 468 kts 350°
2026-05-07 19:33 59.79054 24.89754 23153 ft 465 kts 350°
2026-05-07 19:33 59.82309 24.89452 22708 ft 462 kts 350°
2026-05-07 19:33 59.85493 24.89150 22269 ft 458 kts 350°
2026-05-07 19:34 59.88674 24.88863 21895 ft 456 kts 350°
2026-05-07 19:34 59.91795 24.88348 21460 ft 445 kts 343°
2026-05-07 19:34 59.94831 24.87177 21042 ft 441 kts 341°
2026-05-07 19:34 59.96813 24.86368 20764 ft 438 kts 341°
2026-05-07 19:35 59.99770 24.85147 20365 ft 435 kts 341°
2026-05-07 19:35 60.03729 24.83492 19813 ft 431 kts 341°
2026-05-07 19:35 60.06656 24.82254 19418 ft 428 kts 341°
2026-05-07 19:35 60.09569 24.81009 19010 ft 426 kts 341°
2026-05-07 19:36 60.11491 24.80180 18679 ft 423 kts 341°
2026-05-07 19:36 60.14355 24.78933 18141 ft 419 kts 341°
2026-05-07 19:36 60.17173 24.77684 17559 ft 416 kts 341°
2026-05-07 19:36 60.19905 24.75944 17007 ft 404 kts 332°
2026-05-07 19:37 60.22472 24.73774 16470 ft 396 kts 332°
2026-05-07 19:37 60.24974 24.71637 15922 ft 385 kts 332°
2026-05-07 19:37 60.27328 24.69618 15400 ft 375 kts 332°
2026-05-07 19:37 60.29776 24.67504 14847 ft 366 kts 332°
2026-05-07 19:38 60.32079 24.65495 14321 ft 358 kts 332°
2026-05-07 19:38 60.34354 24.63497 13798 ft 352 kts 332°
2026-05-07 19:38 60.36571 24.61530 13214 ft 347 kts 332°
2026-05-07 19:38 60.38741 24.59567 12653 ft 342 kts 332°
2026-05-07 19:39 60.40905 24.57572 12081 ft 335 kts 332°
2026-05-07 19:39 60.42979 24.55628 11537 ft 322 kts 332°
2026-05-07 19:39 60.44972 24.53728 10993 ft 311 kts 332°
2026-05-07 19:39 60.46890 24.51865 10467 ft 301 kts 332°
2026-05-07 19:40 60.48740 24.50031 9934 ft 293 kts 332°
2026-05-07 19:40 60.50563 24.48282 9367 ft 286 kts 339°
2026-05-07 19:40 60.52496 24.47819 8788 ft 284 kts
2026-05-07 19:40 60.54340 24.49188 8232 ft 282 kts 33°
2026-05-07 19:41 60.55688 24.52041 7677 ft 280 kts 53°
2026-05-07 19:41 60.56741 24.55331 7145 ft 276 kts 57°
2026-05-07 19:41 60.57483 24.58894 6595 ft 274 kts 81°
2026-05-07 19:41 60.57351 24.62697 6048 ft 271 kts 109°
2026-05-07 19:42 60.56611 24.66184 5493 ft 268 kts 115°
2026-05-07 19:42 60.55782 24.69507 4959 ft 264 kts 116°
2026-05-07 19:42 60.54881 24.72725 4395 ft 262 kts 127°
2026-05-07 19:42 60.53550 24.75196 3849 ft 261 kts 149°
2026-05-07 19:43 60.51942 24.76897 3295 ft 259 kts 152°
2026-05-07 19:43 60.50341 24.78559 2740 ft 258 kts 151°
2026-05-07 19:43 60.48785 24.80175 2394 ft 246 kts 151°
2026-05-07 19:43 60.47306 24.81711 2258 ft 240 kts 151°
2026-05-07 19:44 60.45824 24.83247 2164 ft 227 kts 151°
2026-05-07 19:44 60.44468 24.84650 2071 ft 210 kts 151°
2026-05-07 19:44 60.43190 24.85972 2028 ft 202 kts 151°
2026-05-07 19:44 60.41948 24.87257 2031 ft 200 kts 151°
2026-05-07 19:45 60.40710 24.88537 1905 ft 203 kts 151°
2026-05-07 19:45 60.39449 24.89838 1629 ft 197 kts 151°
2026-05-07 19:45 60.38278 24.91043 1368 ft 181 kts 152°
2026-05-07 19:45 60.37227 24.92130 1113 ft 169 kts 152°
2026-05-07 19:46 60.36208 24.93224 909 ft 157 kts 152°
2026-05-07 19:46 60.35250 24.94211 692 ft 151 kts 155°
2026-05-07 19:46 60.34317 24.95151 522 ft 149 kts 155°
2026-05-07 19:46 60.33404 24.96084 297 ft 146 kts 155°
2026-05-07 19:47 60.32500 24.96982 171 ft 137 kts 153°
2026-05-07 19:47 60.31819 24.97687 151 ft 81 kts 152°
2026-05-07 19:47 60.31469 24.98046 154 ft 34 kts 153°
2026-05-07 19:47 60.31266 24.98253 161 ft 31 kts 153°
2026-05-07 19:48 60.31088 24.98435 157 ft 24 kts 158°
2026-05-07 19:48 60.30979 24.98326 156 ft 5 kts 239°
2026-05-07 19:48 60.30975 24.98314 156 ft 0 kts 240°
2026-05-07 19:49 60.30975 24.98311 156 ft 2 kts 240°
2026-05-07 19:49 60.30997 24.98195 158 ft 19 kts 323°
2026-05-07 19:49 60.31139 24.98050 159 ft 23 kts 333°
2026-05-07 19:49 60.31268 24.97918 158 ft 19 kts 333°
2026-05-07 19:50 60.31355 24.97829 157 ft 4 kts 333°
2026-05-07 19:50 60.31379 24.97804 157 ft 4 kts 331°
2026-05-07 19:50 60.31409 24.97773 156 ft 9 kts 334°
2026-05-07 19:50 60.31498 24.97682 156 ft 15 kts 333°
2026-05-07 19:51 60.31591 24.97586 156 ft 14 kts 333°
2026-05-07 19:51 60.31630 24.97475 162 ft 7 kts 260°
2026-05-07 19:51 60.31627 24.97440 164 ft 0 kts 260°
2026-05-07 19:51 60.31624 24.97410 165 ft 7 kts 258°
2026-05-07 19:52 60.31612 24.97350 166 ft 4 kts 244°
2026-05-07 19:52 60.31602 24.97310 166 ft 0 kts 243°
2026-05-07 19:52 60.31597 24.97290 166 ft 0 kts 243°